sat.trackr.live / text

‹ back to catalog

STARLINK-31459

NORAD 59233 · 2024-049C

PAYLOAD ACTIVE UNKNOWN

§ Identity

Operator
Country
US
Launch date
2024-03-16
Launch site
AFETR
Launch vehicle
Mass (kg)
RCS (m²)

Purposes: comms

External: N2YO · Heavens-Above · Gunter

§ Orbital elements

Epoch: 2026-09-20T22:01:28.942176Z

Period
94.27 min
Inclination
43.0037°
Eccentricity
0.0000900
Mean motion
15.27576426 rev/d
Perigee alt
482.4 km
Apogee alt
483.7 km
Semi-major
6,861.2 km
B*
4.0890e-6
RAAN
120.9958°
Arg perigee
271.7301°
Mean anomaly
88.3448°
Rev number
14,225

§ Raw data

STARLINK-314591 59233U 24049C   26263.91769609 -.00000149  00000+0  40890-5 0  99972 59233  43.0037 120.9958 0000900 271.7301  88.3448 15.27576426142259

JSON: /api/v1/satellites/59233 · /tle

For live sub-satellite position, see the globe view (requires WebGL).

§ Visibility from observer

Set your observer location to see the next 7 days of passes ≥ 10°. The values pass through the URL so the page stays shareable.

No JS? Fill the form by hand. The geolocation button needs JavaScript.